BREEZE-M DEB (TANK), 42908

Orbit data source: Space-Track

BREEZE-M DEB (TANK), 42908 is space debris in HEO originally from a launch on Wed, 16 Aug 2017 UTC launched from the Tyuratam Missile And Space Complex (TTMTR). Debris objects in space refer to the collection of defunct objects orbiting the Earth. Examples of debris include non-operational satellites, rocket bodies, and fragments generated from explosions, collisions, or faulty payload assembly.

Loading next visibility...
BREEZE-M DEB (TANK) details
Identifier
42908, 2017-046B
Orbit
HEO
Last TLE update13 hours ago
Origin
Flag of CISKhrunichev (CIS)
ManufacturerKhrunichev
MissionSpacecraft
Bus & MotorBRIZ TANK, Unknown motor
Mass~1,000 kg wet, 1,000 kg dry
Launch date (UTC)
2017-08-16 (7 years ago)
Launch vehicleUnknown
Launch site
Tyuratam Missile And Space Complex (TTMTR)
Object type
Payload
Rocket body
Debris
Shape & HBRTorus, 4 m
Radar Cross Section8.218 m², Large (>1 m²)

Expand to show TLE details & history

TLE from 13 hours ago
0 BREEZE-M DEB (TANK)
1 42908U 17046B   24361.34308397  .00000137  00000-0  15136-2 0  9993
2 42908  48.5912 290.2370 7111787 309.6320   6.7493  2.37858648 62415
Epoch: 2024-12-26T08:14Z
Definitive object data (Epoch: 2024-12-26T08:14:02.454Z)
Latitude-0.00007°
Longitude71.3341°
Altitude1,670.657 km
Speed9.069 km/s
True Right ascension19h 20m 40s
True Declination0° 00' 00"
Sunlit
Object was in daylight at TLE epoch
Visualization TLE readout
Latitude43.89755°
Longitude-166.63184°
Altitude30,133.608 km
Speed2.242 km/s
Apparent Right ascension04h 08m 35s
Apparent Declination37° 24' 30"
Sunlit
Object is in daylight
Visualization observer readout
Local Sidereal Time20:40:55
Azimuth48.318° ENE
Elevation9.348°
Doppler factor1
Orbital elements
Apogee altitude34,188.295 km
Perigee altitude468.868 km
Semi-major axis23,706.719 km
Eccentricity0.7111787
Inclination48.5912°
RAAN290.237°
Arg. of periapsis309.632°
True anomaly50.72331°
Mean anomaly6.7493°
Eccentric anomaly22.03991°
Mean motion0.59462 °/min
BSTAR0.0015136
Orbital period605.43 mins
Loading maneuver chart data...
Loading historical data...
Loading historical data...
Loading historical data...
Loading historical data...
Loading historical data...
Loading historical data...
Loading historical data...
Other satellites on launch #46 in the year 2017 (2017-08-16 UTC)

BREEZE-M DEB (TANK) Visibility forecast

Observer location: undefined°, undefined

Span
Click to sort rows by Start time (UTC) header in descending order
Start Az.
Max El. time (UTC)
Max El. Az.
Max El.
End time (UTC)
End Az.
193 mins2024-12-26 22:46:57.632Z57.086° ENE2024-12-27 00:55:57.632Z75.482° E12.388°2024-12-27 01:59:57.632Z87.192° E
411 mins2024-12-27 05:03:57.632Z302.231° NW2024-12-27 07:10:57.632Z294.253° NW35.959°2024-12-27 11:54:57.632Z275.389° WNW
|